Surface/Precipitation History
02/08/2016 10:57  to  2/9/2016 10:57
Change End Date:
Date/Time
(MST)
Sf
Temp Chem Water Layer Surface Precipitation
Sfc Pvt Sub Frz Factor Pct Dpth DpthThk IcePct Cond Salin FI Type Intens Accum Rate
02/09/2016 10:56 Trace Moisture 53.4F - 33F - 5 - - - - 0 mhos 8 - None None - -
02/09/2016 10:54 Trace Moisture 53.2F - 33F - 5 - - - - 0 mhos 9 - None None - -
02/09/2016 10:44 Trace Moisture 51.6F - 33F - 5 - - - - 0 mhos 6 - None None - -
02/09/2016 10:41 Trace Moisture 51.1F - 33F - 5 - - - - 0 mhos 5 - None None - -
02/09/2016 10:34 Trace Moisture 50.0F - 33F - 5 - - - - 0 mhos 9 - None None - -
02/09/2016 10:26 Trace Moisture 48.6F - 33F - 5 - - - - 0 mhos 5 - None None - -
02/09/2016 10:24 Trace Moisture 48.2F - 33F - 5 - - - - 0 mhos 4 - None None - -
02/09/2016 10:14 Trace Moisture 46.4F - 33F - 5 - - - - 0 mhos 5 - None None - -
02/09/2016 10:11 Trace Moisture 45.7F - 33F - 5 - - - - 0 mhos 7 - None None - -
02/09/2016 10:04 Trace Moisture 44.6F - 33F - 5 - - - - 0 mhos 6 - None None - -
02/09/2016 09:56 Trace Moisture 43.2F - 33F - 5 - - - - 0 mhos 7 - None None - -
02/09/2016 09:54 Trace Moisture 43.0F - 33F - 5 - - - - 0 mhos 9 - None None - -
02/09/2016 09:44 Trace Moisture 41.2F - 33F - 5 - - - - 0 mhos 10 - None None - -
02/09/2016 09:41 Trace Moisture 40.5F - 33F - 5 - - - - 0 mhos 10 - None None - -
02/09/2016 09:34 Trace Moisture 39.6F - 33F - 5 - - - - 0 mhos 11 - None None - -
Date/Time
(MST)
Sf
Temp Chem Water Layer Surface Precipitation
Sfc Pvt Sub Frz Factor Pct Dpth DpthThk IcePct Cond Salin FI Type Intens Accum Rate
02/09/2016 09:26 Trace Moisture 38.1F - 33F - 5 - - - - 0 mhos 27 - None None - -
02/09/2016 09:24 Trace Moisture 37.9F - 33F - 5 - - - - 0 mhos 19 - None None - -
02/09/2016 09:14 Trace Moisture 36.5F - 33F - 10 - - - - 0 mhos 18 - None None - -
02/09/2016 09:11 Trace Moisture 36.1F - 33F - 10 - - - - 0 mhos 13 - None None - -
02/09/2016 09:04 Trace Moisture 35.1F - 33F - 20 - - - - 0 mhos 34 - None None - -
02/09/2016 08:56 Trace Moisture 34.0F - 33F - 75 - - - - 0 mhos 47 - None None - -
02/09/2016 08:54 Trace Moisture 33.6F - 33F - 95 - - - - 1 mhos 60 - None None - -
02/09/2016 08:44 Ice Watch 32.0F - 33F - 95 - - - - 1 mhos 96 - None None - -
02/09/2016 08:41 Ice Watch 31.6F - 33F - 95 - - - - 1 mhos 94 - None None - -
02/09/2016 08:34 Ice Watch 31.5F - 33F - 95 - - - - 1 mhos 134 - None None - -
02/09/2016 08:26 Ice Watch 31.1F - 33F - 95 - - - - 1 mhos 112 - None None - -
02/09/2016 08:24 Ice Watch 31.1F - 33F - 95 - - - - 1 mhos 122 - None None - -
02/09/2016 08:14 Ice Watch 30.7F - 33F - 95 - - - - 1 mhos 129 - None None - -
02/09/2016 08:11 Ice Watch 30.6F - 33F - 95 - - - - 1 mhos 153 - None None - -
02/09/2016 08:04 Ice Watch 30.2F - 33F - 95 - - - - 1 mhos 118 - None None - -
Date/Time
(MST)
Sf
Temp Chem Water Layer Surface Precipitation
Sfc Pvt Sub Frz Factor Pct Dpth DpthThk IcePct Cond Salin FI Type Intens Accum Rate
02/09/2016 07:56 Ice Watch 30.2F - 33F - 95 - - - - 1 mhos 156 - None None - -
02/09/2016 07:54 Ice Watch 30.0F - 33F - 95 - - - - 1 mhos 160 - None None - -
02/09/2016 07:43 Ice Watch 29.8F - 33F - 95 - - - - 1 mhos 137 - None None - -
02/09/2016 07:42 Ice Watch 29.8F - 33F - 95 - - - - 1 mhos 136 - None None - -
02/09/2016 07:33 Ice Watch 30.0F - 33F - 95 - - - - 1 mhos 153 - None None - -
02/09/2016 07:26 Ice Watch 29.8F - 33F - 95 - - - - 1 mhos 156 - None None - -
02/09/2016 07:23 Ice Watch 29.8F - 33F - 95 - - - - 1 mhos 157 - None None - -
02/09/2016 07:13 Ice Watch 29.5F - 33F - 95 - - - - 1 mhos 152 - None None - -
02/09/2016 07:11 Ice Watch 29.5F - 33F - 95 - - - - 1 mhos 149 - None None - -
02/09/2016 07:03 Ice Watch 30.0F - 34F - 95 - - - - 1 mhos 146 - None None - -
02/09/2016 06:56 Ice Watch 29.8F - 34F - 95 - - - - 1 mhos 136 - None None - -
02/09/2016 06:53 Ice Watch 30.0F - 34F - 95 - - - - 1 mhos 143 - None None - -
02/09/2016 06:43 Ice Watch 30.2F - 34F - 95 - - - - 1 mhos 144 - None None - -
02/09/2016 06:42 Ice Watch 30.2F - 34F - 95 - - - - 1 mhos 140 - None None - -
02/09/2016 06:33 Ice Watch 29.8F - 34F - 95 - - - - 1 mhos 147 - None None - -
Date/Time
(MST)
Sf
Temp Chem Water Layer Surface Precipitation
Sfc Pvt Sub Frz Factor Pct Dpth DpthThk IcePct Cond Salin FI Type Intens Accum Rate
02/09/2016 06:26 Ice Watch 29.8F - 34F - 95 - - - - 1 mhos 144 - None None - -
02/09/2016 06:23 Ice Watch 30.2F - 34F - 95 - - - - 1 mhos 149 - None None - -
02/09/2016 06:13 Ice Watch 30.2F - 34F - 95 - - - - 1 mhos 143 - None None - -
02/09/2016 06:12 Ice Watch 30.2F - 34F - 95 - - - - 1 mhos 141 - None None - -
02/09/2016 06:03 Ice Watch 30.4F - 34F - 95 - - - - 1 mhos 139 - None None - -
02/09/2016 05:57 Ice Watch 30.9F - 34F - 95 - - - - 1 mhos 134 - None None - -
02/09/2016 05:53 Ice Watch 31.1F - 34F - 95 - - - - 1 mhos 132 - None None - -
02/09/2016 05:43 Ice Watch 31.3F - 34F - 95 - - - - 1 mhos 127 - None None - -
02/09/2016 05:42 Ice Watch 31.3F - 34F - 95 - - - - 1 mhos 128 - None None - -
02/09/2016 05:33 Ice Watch 30.7F - 34F - 95 - - - - 1 mhos 133 - None None - -
02/09/2016 05:26 Ice Watch 30.2F - 34F - 95 - - - - 1 mhos 132 - None None - -
02/09/2016 05:23 Ice Watch 30.4F - 34F - 95 - - - - 1 mhos 125 - None None - -
02/09/2016 05:13 Ice Watch 30.2F - 34F - 95 - - - - 1 mhos 130 - None None - -
02/09/2016 05:11 Ice Watch 30.2F - 34F - 95 - - - - 1 mhos 128 - None None - -
02/09/2016 05:03 Ice Watch 30.2F - 34F - 95 - - - - 1 mhos 125 - None None - -
Date/Time
(MST)
Sf
Temp Chem Water Layer Surface Precipitation
Sfc Pvt Sub Frz Factor Pct Dpth DpthThk IcePct Cond Salin FI Type Intens Accum Rate
02/09/2016 04:57 Ice Watch 30.0F - 34F - 95 - - - - 1 mhos 122 - None None - -
02/09/2016 04:53 Ice Watch 30.0F - 34F - 95 - - - - 1 mhos 121 - None None - -
02/09/2016 04:43 Ice Watch 29.8F - 34F - 95 - - - - 1 mhos 117 - None None - -
02/09/2016 04:41 Ice Watch 29.8F - 34F - 95 - - - - 1 mhos 121 - None None - -
02/09/2016 04:33 Ice Watch 29.8F - 34F - 95 - - - - 1 mhos 118 - None None - -
02/09/2016 04:26 Ice Watch 30.0F - 34F - 95 - - - - 1 mhos 108 - None None - -
02/09/2016 04:23 Ice Watch 30.0F - 34F - 95 - - - - 1 mhos 109 - None None - -
02/09/2016 04:13 Ice Watch 29.8F - 34F - 95 - - - - 1 mhos 105 - None None - -
02/09/2016 04:11 Ice Watch 29.5F - 34F - 95 - - - - 1 mhos 112 - None None - -
02/09/2016 04:02 Ice Watch 29.7F - 34F - 95 - - - - 1 mhos 106 - None None - -
02/09/2016 03:56 Ice Watch 30.2F - 34F - 95 - - - - 1 mhos 99 - None None - -
02/09/2016 03:52 Ice Watch 29.8F - 34F - 95 - - - - 1 mhos 98 - None None - -
02/09/2016 03:42 Ice Watch 29.7F - 34F - 95 - - - - 1 mhos 98 - None None - -
02/09/2016 03:41 Ice Watch 29.7F - 34F - 95 - - - - 1 mhos 96 - None None - -
02/09/2016 03:32 Ice Watch 29.3F - 34F - 95 - - - - 1 mhos 95 - None None - -
Date/Time
(MST)
Sf
Temp Chem Water Layer Surface Precipitation
Sfc Pvt Sub Frz Factor Pct Dpth DpthThk IcePct Cond Salin FI Type Intens Accum Rate
02/09/2016 03:27 Ice Watch 29.7F - 34F - 95 - - - - 1 mhos 91 - None None - -
02/09/2016 03:22 Ice Watch 29.8F - 34F - 95 - - - - 1 mhos 90 - None None - -
02/09/2016 03:12 Ice Watch 29.7F - 34F - 95 - - - - 1 mhos 87 - None None - -
02/09/2016 03:12 Ice Watch 29.7F - 34F - 95 - - - - 1 mhos 83 - None None - -
02/09/2016 03:02 Ice Watch 29.7F - 35F - 95 - - - - 1 mhos 83 - None None - -
02/09/2016 02:57 Ice Watch 29.8F - 35F - 95 - - - - 1 mhos 80 - None None - -
02/09/2016 02:52 Ice Watch 30.0F - 35F - 95 - - - - 1 mhos 78 - None None - -
02/09/2016 02:42 Ice Watch 30.2F - 35F - 95 - - - - 1 mhos 73 - None None - -
02/09/2016 02:41 Ice Watch 30.2F - 35F - 95 - - - - 1 mhos 73 - None None - -
02/09/2016 02:32 Ice Watch 30.6F - 35F - 95 - - - - 1 mhos 68 - None None - -
02/09/2016 02:26 Ice Watch 30.4F - 35F - 95 - - - - 1 mhos 67 - None None - -
02/09/2016 02:22 Ice Watch 30.7F - 35F - 95 - - - - 1 mhos 65 - None None - -
02/09/2016 02:12 Ice Watch 30.9F - 35F - 95 - - - - 1 mhos 60 - None None - -
02/09/2016 02:11 Ice Watch 31.1F - 35F - 95 - - - - 1 mhos 60 - None None - -
02/09/2016 02:02 Ice Watch 31.5F - 35F - 95 - - - - 1 mhos 56 - None None - -
Date/Time
(MST)
Sf
Temp Chem Water Layer Surface Precipitation
Sfc Pvt Sub Frz Factor Pct Dpth DpthThk IcePct Cond Salin FI Type Intens Accum Rate
02/09/2016 01:56 Ice Watch 31.6F - 35F - 95 - - - - 1 mhos 54 - None None - -
02/09/2016 01:52 Ice Watch 31.8F - 35F - 95 - - - - 1 mhos 52 - None None - -
02/09/2016 01:42 Trace Moisture 32.2F - 35F - 95 - - - - 0 mhos 49 - None None - -
02/09/2016 01:41 Trace Moisture 32.2F - 35F - 95 - - - - 0 mhos 48 - None None - -
02/09/2016 01:32 Trace Moisture 32.5F - 35F - 95 - - - - 0 mhos 45 - None None - -
02/09/2016 01:26 Trace Moisture 33.1F - 35F - 95 - - - - 0 mhos 43 - None None - -
02/09/2016 01:22 Trace Moisture 33.3F - 35F - 95 - - - - 0 mhos 42 - None None - -
02/09/2016 01:12 Trace Moisture 33.8F - 35F - 95 - - - - 0 mhos 41 - None None - -
02/09/2016 01:11 Trace Moisture 33.8F - 35F - 95 - - - - 0 mhos 41 - None None - -
02/09/2016 01:02 Trace Moisture 33.6F - 35F - 95 - - - - 0 mhos 37 - None None - -
02/09/2016 00:56 Trace Moisture 34.0F - 35F - 95 - - - - 0 mhos 36 - None None - -
02/09/2016 00:52 Trace Moisture 34.0F - 35F - 95 - - - - 0 mhos 35 - None None - -
02/09/2016 00:42 Trace Moisture 33.8F - 35F - 95 - - - - 0 mhos 32 - None None - -
02/09/2016 00:41 Trace Moisture 33.8F - 35F - 95 - - - - 0 mhos 32 - None None - -
02/09/2016 00:32 Trace Moisture 33.8F - 35F - 95 - - - - 0 mhos 31 - None None - -
Date/Time
(MST)
Sf
Temp Chem Water Layer Surface Precipitation
Sfc Pvt Sub Frz Factor Pct Dpth DpthThk IcePct Cond Salin FI Type Intens Accum Rate
02/09/2016 00:26 Trace Moisture 34.0F - 35F - 95 - - - - 0 mhos 31 - None None - -
02/09/2016 00:22 Trace Moisture 33.8F - 35F - 95 - - - - 0 mhos 29 - None None - -
02/09/2016 00:12 Trace Moisture 33.8F - 35F - 95 - - - - 0 mhos 27 - None None - -
02/09/2016 00:11 Trace Moisture 33.8F - 35F - 95 - - - - 0 mhos 27 - None None - -
02/09/2016 00:02 Trace Moisture 33.8F - 35F - 95 - - - - 0 mhos 25 - None None - -
02/08/2016 23:56 Trace Moisture 34.0F - 35F - 95 - - - - 0 mhos 24 - None None - -
02/08/2016 23:52 Trace Moisture 34.2F - 35F - 95 - - - - 0 mhos 24 - None None - -
02/08/2016 23:42 Trace Moisture 34.3F - 35F - 95 - - - - 0 mhos 22 - None None - -
02/08/2016 23:41 Trace Moisture 34.3F - 35F - 95 - - - - 0 mhos 22 - None None - -
02/08/2016 23:31 Trace Moisture 34.5F - 35F - 95 - - - - 0 mhos 21 - None None - -
02/08/2016 23:26 Trace Moisture 34.5F - 35F - 95 - - - - 0 mhos 21 - None None - -
02/08/2016 23:21 Trace Moisture 34.7F - 35F - 95 - - - - 0 mhos 20 - None None - -
02/08/2016 23:11 Trace Moisture 34.5F - 35F - 95 - - - - 0 mhos 19 - None None - -
02/08/2016 23:11 Trace Moisture 34.5F - 35F - 95 - - - - 0 mhos 19 - None None - -
02/08/2016 23:01 Trace Moisture 34.7F - 35F - 95 - - - - 0 mhos 18 - None None - -
Date/Time
(MST)
Sf
Temp Chem Water Layer Surface Precipitation
Sfc Pvt Sub Frz Factor Pct Dpth DpthThk IcePct Cond Salin FI Type Intens Accum Rate
02/08/2016 22:56 Trace Moisture 34.9F - 35F - 95 - - - - 0 mhos 18 - None None - -
02/08/2016 22:51 Trace Moisture 34.7F - 35F - 95 - - - - 0 mhos 17 - None None - -
02/08/2016 22:41 Trace Moisture 34.5F - 35F - 95 - - - - 0 mhos 16 - None None - -
02/08/2016 22:41 Trace Moisture 34.5F - 35F - 95 - - - - 0 mhos 16 - None None - -
02/08/2016 22:31 Trace Moisture 34.9F - 35F - 95 - - - - 0 mhos 15 - None None - -
02/08/2016 22:26 Trace Moisture 34.7F - 35F - 95 - - - - 0 mhos 15 - None None - -
02/08/2016 22:21 Trace Moisture 34.9F - 35F - 95 - - - - 0 mhos 15 - None None - -
02/08/2016 22:11 Trace Moisture 34.9F - 35F - 95 - - - - 0 mhos 14 - None None - -
02/08/2016 22:11 Trace Moisture 34.9F - 35F - 95 - - - - 0 mhos 14 - None None - -
02/08/2016 22:01 Trace Moisture 35.2F - 35F - 95 - - - - 0 mhos 14 - None None - -
02/08/2016 21:56 Trace Moisture 35.2F - 35F - 95 - - - - 0 mhos 11 - None None - -
02/08/2016 21:51 Trace Moisture 35.8F - 35F - 95 - - - - 0 mhos 10 - None None - -
02/08/2016 21:42 Trace Moisture 35.4F - 35F - 95 - - - - 0 mhos 10 - None None - -
02/08/2016 21:41 Trace Moisture 35.4F - 35F - 95 - - - - 0 mhos 10 - None None - -
02/08/2016 21:31 Trace Moisture 36.0F - 35F - 95 - - - - 0 mhos 10 - None None - -
Date/Time
(MST)
Sf
Temp Chem Water Layer Surface Precipitation
Sfc Pvt Sub Frz Factor Pct Dpth DpthThk IcePct Cond Salin FI Type Intens Accum Rate
02/08/2016 21:26 Trace Moisture 36.1F - 35F - 95 - - - - 0 mhos 9 - None None - -
02/08/2016 21:21 Trace Moisture 36.1F - 35F - 95 - - - - 0 mhos 10 - None None - -
02/08/2016 21:11 Trace Moisture 36.0F - 35F - 95 - - - - 0 mhos 10 - None None - -
02/08/2016 21:11 Trace Moisture 36.0F - 35F - 95 - - - - 0 mhos 10 - None None - -
02/08/2016 21:01 Trace Moisture 36.0F - 35F - 95 - - - - 0 mhos 8 - None None - -
02/08/2016 20:56 Trace Moisture 36.1F - 35F - 95 - - - - 0 mhos 8 - None None - -
02/08/2016 20:51 Trace Moisture 36.0F - 35F - 95 - - - - 0 mhos 8 - None None - -
02/08/2016 20:41 Trace Moisture 36.1F - 35F - 95 - - - - 0 mhos 8 - None None - -
02/08/2016 20:41 Trace Moisture 36.1F - 35F - 95 - - - - 0 mhos 8 - None None - -
02/08/2016 20:31 Trace Moisture 36.1F - 35F - 95 - - - - 0 mhos 7 - None None - -
02/08/2016 20:26 Trace Moisture 36.1F - 35F - 95 - - - - 0 mhos 7 - None None - -
02/08/2016 20:21 Trace Moisture 36.1F - 35F - 95 - - - - 0 mhos 7 - None None - -
02/08/2016 20:11 Trace Moisture 36.9F - 35F - 75 - - - - 0 mhos 7 - None None - -
02/08/2016 20:11 Trace Moisture 36.9F - 35F - 75 - - - - 0 mhos 7 - None None - -
02/08/2016 20:01 Trace Moisture 37.8F - 35F - 65 - - - - 0 mhos 6 - None None - -
Date/Time
(MST)
Sf
Temp Chem Water Layer Surface Precipitation
Sfc Pvt Sub Frz Factor Pct Dpth DpthThk IcePct Cond Salin FI Type Intens Accum Rate
02/08/2016 19:57 Trace Moisture 37.8F - 35F - 65 - - - - 0 mhos 6 - None None - -
02/08/2016 19:51 Trace Moisture 37.9F - 35F - 65 - - - - 0 mhos 6 - None None - -
02/08/2016 19:42 Trace Moisture 37.8F - 35F - 70 - - - - 0 mhos 6 - None None - -
02/08/2016 19:41 Trace Moisture 37.8F - 35F - 70 - - - - 0 mhos 6 - None None - -
02/08/2016 19:31 Trace Moisture 38.1F - 35F - 55 - - - - 0 mhos 5 - None None - -
02/08/2016 19:27 Trace Moisture 38.3F - 35F - 35 - - - - 0 mhos 6 - None None - -
02/08/2016 19:21 Trace Moisture 38.3F - 35F - 40 - - - - 0 mhos 6 - None None - -
02/08/2016 19:12 Trace Moisture 38.5F - 35F - 50 - - - - 0 mhos 5 - None None - -
02/08/2016 19:11 Trace Moisture 38.5F - 35F - 40 - - - - 0 mhos 5 - None None - -
02/08/2016 19:01 Trace Moisture 38.5F - 35F - 35 - - - - 0 mhos 5 - None None - -
02/08/2016 18:57 Trace Moisture 38.7F - 35F - 30 - - - - 0 mhos 5 - None None - -
02/08/2016 18:51 Trace Moisture 38.7F - 34F - 20 - - - - 0 mhos 5 - None None - -
02/08/2016 18:41 Trace Moisture 39.2F - 34F - 15 - - - - 0 mhos 5 - None None - -
02/08/2016 18:41 Trace Moisture 39.2F - 34F - 15 - - - - 0 mhos 5 - None None - -
02/08/2016 18:31 Trace Moisture 39.9F - 34F - 10 - - - - 0 mhos 5 - None None - -
Date/Time
(MST)
Sf
Temp Chem Water Layer Surface Precipitation
Sfc Pvt Sub Frz Factor Pct Dpth DpthThk IcePct Cond Salin FI Type Intens Accum Rate
02/08/2016 18:27 Trace Moisture 39.9F - 34F - 10 - - - - 0 mhos 5 - None None - -
02/08/2016 18:21 Trace Moisture 40.3F - 34F - 10 - - - - 0 mhos 4 - None None - -
02/08/2016 18:12 Trace Moisture 40.5F - 34F - 10 - - - - 0 mhos 4 - None None - -
02/08/2016 18:10 Trace Moisture 40.6F - 34F - 10 - - - - 0 mhos 4 - None None - -
02/08/2016 18:00 Trace Moisture 41.2F - 34F - 5 - - - - 0 mhos 4 - None None - -
02/08/2016 17:56 Trace Moisture 41.2F - 34F - 5 - - - - 0 mhos 4 - None None - -
02/08/2016 17:50 Trace Moisture 41.5F - 34F - 5 - - - - 0 mhos 4 - None None - -
02/08/2016 17:41 Trace Moisture 42.1F - 34F - 5 - - - - 0 mhos 4 - None None - -
02/08/2016 17:40 Trace Moisture 42.3F - 34F - 5 - - - - 0 mhos 4 - None None - -
02/08/2016 17:30 Trace Moisture 42.8F - 34F - 5 - - - - 0 mhos 4 - None None - -
02/08/2016 17:26 Trace Moisture 43.3F - 34F - 5 - - - - 0 mhos 4 - None None - -
02/08/2016 17:20 Trace Moisture 43.7F - 34F - 5 - - - - 0 mhos 4 - None None - -
02/08/2016 17:11 Trace Moisture 44.8F - 34F - 5 - - - - 0 mhos 4 - None None - -
02/08/2016 17:10 Trace Moisture 44.8F - 34F - 5 - - - - 0 mhos 4 - None None - -
02/08/2016 17:00 Trace Moisture 45.9F - 33F - 5 - - - - 0 mhos 4 - None None - -
Date/Time
(MST)
Sf
Temp Chem Water Layer Surface Precipitation
Sfc Pvt Sub Frz Factor Pct Dpth DpthThk IcePct Cond Salin FI Type Intens Accum Rate
02/08/2016 16:56 Trace Moisture 46.6F - 33F - 5 - - - - 0 mhos 4 - None None - -
02/08/2016 16:50 Trace Moisture 47.7F - 33F - 5 - - - - 0 mhos 4 - None None - -
02/08/2016 16:41 Trace Moisture 48.7F - 33F - 5 - - - - 0 mhos 4 - None None - -
02/08/2016 16:40 Trace Moisture 48.7F - 33F - 5 - - - - 0 mhos 4 - None None - -
02/08/2016 16:30 Trace Moisture 50.9F - 33F - 5 - - - - 0 mhos 4 - None None - -
02/08/2016 16:26 Trace Moisture 51.4F - 33F - 5 - - - - 0 mhos 4 - None None - -
02/08/2016 16:20 Trace Moisture 51.8F - 33F - 5 - - - - 0 mhos 4 - None None - -
02/08/2016 16:11 Trace Moisture 52.7F - 33F - 5 - - - - 0 mhos 4 - None None - -
02/08/2016 16:10 Trace Moisture 52.5F - 33F - 5 - - - - 0 mhos 4 - None None - -
02/08/2016 16:00 Trace Moisture 52.7F - 33F - 5 - - - - 0 mhos 4 - None None - -
02/08/2016 15:56 Trace Moisture 53.4F - 33F - 5 - - - - 0 mhos 4 - None None - -
02/08/2016 15:50 Trace Moisture 54.0F - 33F - 5 - - - - 0 mhos 4 - None None - -
02/08/2016 15:41 Trace Moisture 55.9F - 33F - 5 - - - - 0 mhos 4 - None None - -
02/08/2016 15:40 Trace Moisture 55.9F - 33F - 5 - - - - 0 mhos 3 - None None - -
02/08/2016 15:30 Trace Moisture 55.6F - 33F - 5 - - - - 0 mhos 4 - None None - -
Date/Time
(MST)
Sf
Temp Chem Water Layer Surface Precipitation
Sfc Pvt Sub Frz Factor Pct Dpth DpthThk IcePct Cond Salin FI Type Intens Accum Rate
02/08/2016 15:26 Trace Moisture 55.6F - 33F - 5 - - - - 0 mhos 3 - None None - -
02/08/2016 15:20 Trace Moisture 57.2F - 32F - 5 - - - - 0 mhos 4 - None None - -
02/08/2016 15:12 Trace Moisture 58.1F - 32F - 5 - - - - 0 mhos 3 - None None - -
02/08/2016 15:10 Trace Moisture 57.6F - 32F - 5 - - - - 0 mhos 3 - None None - -
02/08/2016 15:00 Trace Moisture 60.6F - 32F - 5 - - - - 0 mhos 3 - None None - -
02/08/2016 14:56 Trace Moisture 60.8F - 32F - 5 - - - - 0 mhos 5 - None None - -
02/08/2016 14:50 Trace Moisture 61.0F - 32F - 5 - - - - 0 mhos 4 - None None - -
02/08/2016 14:42 Trace Moisture 61.7F - 32F - 5 - - - - 0 mhos 4 - None None - -
02/08/2016 14:40 Trace Moisture 61.5F - 32F - 5 - - - - 0 mhos 4 - None None - -
02/08/2016 14:30 Trace Moisture 61.3F - 32F - 5 - - - - 0 mhos 4 - None None - -
02/08/2016 14:26 Trace Moisture 61.5F - 32F - 5 - - - - 0 mhos 4 - None None - -
02/08/2016 14:20 Trace Moisture 61.3F - 32F - 5 - - - - 0 mhos 4 - None None - -
02/08/2016 14:11 Trace Moisture 62.2F - 32F - 95 - - - - 0 mhos 5 - None None - -
02/08/2016 14:10 Trace Moisture 62.8F - 32F - 95 - - - - 0 mhos 6 - None None - -
02/08/2016 14:00 Trace Moisture 62.6F - 32F - 5 - - - - 0 mhos 4 - None None - -
Date/Time
(MST)
Sf
Temp Chem Water Layer Surface Precipitation
Sfc Pvt Sub Frz Factor Pct Dpth DpthThk IcePct Cond Salin FI Type Intens Accum Rate
02/08/2016 13:56 Trace Moisture 62.6F - 32F - 5 - - - - 0 mhos 4 - None None - -
02/08/2016 13:49 Trace Moisture 62.1F - 32F - 5 - - - - 0 mhos 4 - None None - -
02/08/2016 13:41 Trace Moisture 61.0F - 32F - 5 - - - - 0 mhos 3 - None None - -
02/08/2016 13:39 Trace Moisture 60.4F - 32F - 5 - - - - 0 mhos 4 - None None - -
02/08/2016 13:29 Trace Moisture 54.1F - 32F - 5 - - - - 0 mhos 6 - None None - -
02/08/2016 13:26 Trace Moisture 52.3F - 32F - 5 - - - - 0 mhos 5 - None None - -
02/08/2016 13:19 Trace Moisture 52.5F - 32F - 5 - - - - 0 mhos 6 - None None - -
02/08/2016 13:11 Trace Moisture 51.4F - 32F - 5 - - - - 0 mhos 6 - None None - -
02/08/2016 13:09 Trace Moisture 51.3F - 32F - 5 - - - - 0 mhos 5 - None None - -
02/08/2016 12:59 Trace Moisture 52.7F - 32F - 5 - - - - 0 mhos 4 - None None - -
02/08/2016 12:56 Trace Moisture 52.5F - 32F - 5 - - - - 0 mhos 4 - None None - -
02/08/2016 12:49 Trace Moisture 51.1F - 32F - 5 - - - - 0 mhos 5 - None None - -
02/08/2016 12:41 Trace Moisture 51.4F - 32F - 10 - - - - 0 mhos 6 - None None - -
02/08/2016 12:39 Trace Moisture 51.4F - 32F - 5 - - - - 0 mhos 4 - None None - -
02/08/2016 12:29 Trace Moisture 50.7F - 32F - 5 - - - - 0 mhos 5 - None None - -
Date/Time
(MST)
Sf
Temp Chem Water Layer Surface Precipitation
Sfc Pvt Sub Frz Factor Pct Dpth DpthThk IcePct Cond Salin FI Type Intens Accum Rate
02/08/2016 12:26 Trace Moisture 49.6F - 32F - 5 - - - - 0 mhos 6 - None None - -
02/08/2016 12:19 Trace Moisture 49.6F - 32F - 5 - - - - 0 mhos 5 - None None - -
02/08/2016 12:11 Trace Moisture 50.4F - 32F - 5 - - - - 0 mhos 5 - None None - -
02/08/2016 12:09 Trace Moisture 50.5F - 32F - 5 - - - - 0 mhos 5 - None None - -
02/08/2016 11:59 Trace Moisture 50.5F - 32F - 5 - - - - 0 mhos 6 - None None - -
02/08/2016 11:56 Trace Moisture 51.1F - 32F - 5 - - - - 0 mhos 4 - None None - -
02/08/2016 11:49 Trace Moisture 51.4F - 32F - 5 - - - - 0 mhos 5 - None None - -
02/08/2016 11:41 Trace Moisture 51.4F - 32F - 5 - - - - 0 mhos 7 - None None - -
02/08/2016 11:39 Trace Moisture 51.4F - 32F - 5 - - - - 0 mhos 5 - None None - -
02/08/2016 11:29 Trace Moisture 50.5F - 32F - 5 - - - - 0 mhos 4 - None None - -
02/08/2016 11:26 Trace Moisture 50.4F - 32F - 5 - - - - 0 mhos 5 - None None - -
02/08/2016 11:19 Trace Moisture 50.4F - 32F - 5 - - - - 0 mhos 4 - None None - -
02/08/2016 11:11 Trace Moisture 51.4F - 32F - 5 - - - - 0 mhos 5 - None None - -
02/08/2016 11:09 Trace Moisture 52.2F - 32F - 5 - - - - 0 mhos 7 - None None - -
02/08/2016 10:59 Dry 52.9F - 32F - - - - - - 0 mhos 5 - None None - -
Change End Date:

Copyright © 1998-2015 Vaisala, Inc.
All Rights Reserved
Send comments about the data to:
SCAN Web ® is a registered trademark of Vaisala, Inc.
SCAN Web Version 6.0